Weather History for West Point, VA

Change the Weather History Date:

Wednesday, December 28, 2011

  Actual Average (KRIC) Record (KRIC)
Temperature  
Mean Temperature 44 °F 38 °F  
Max Temperature 51 °F 48 °F 77 °F (1984)
Min Temperature 37 °F 29 °F 9 °F (1925)
Degree Days  
Heating Degree Days 21 27  
Month to date heating degree days 664  
Since 1 July heating degree days 1340  
Cooling Degree Days 0 0  
Month to date cooling degree days 0  
Year to date cooling degree days 1548  
Moisture  
Dew Point 34 °F    
Average Humidity 64    
Maximum Humidity 81    
Minimum Humidity 44    
Precipitation  
Precipitation 0.00 in 0.10 in 1.28 in (1926)
Month to date precipitation 2.99  
Year to date precipitation 43.33  
Snow  
Snow 0.00 in 0.10 in 3.20 in (1966)
Month to date snowfall 1.9  
Since 1 July snowfall 2.1  
Snow Depth -    
Sea Level Pressure  
Sea Level Pressure 29.79 in    
Wind  
Wind Speed 12 mph (West)    
Max Wind Speed 22 mph    
Max Gust Speed 28 mph    
Visibility 10 miles    
Events      
T = Trace of Precipitation, MM = Missing Value Source: NWS Daily Summary

Daily Weather History Graph

Daily Weather History Graph

Search for Another Location

Airport:

Trip Planner

Search our weather history database for the weather conditions in past years. The results will help you decide how hot, cold, wet, or windy it might be!

Date:

Astronomy

Dec. 28, 2011 Rise Set
Actual Time 7:20 AM EST 4:56 PM EST
Civil Twilight 6:51 AM EST 5:25 PM EST
Nautical Twilight 6:18 AM EST 5:58 PM EST
Astronomical Twilight 5:46 AM EST 6:30 PM EST
Moon 9:50 AM EST (12/28) 9:25 PM EST (12/28)
Length of Visible Light 10h 34m
Length of Day
9h 35m
Waxing Crescent, 18% of the Moon is Illuminated
Dec 28
Waxing Crescent
Jan 1
First Quarter
Jan 9
Full
Jan 16
Last Quarter
Jan 23
New

Hourly Weather History & Observations

Time (EST) Temp. Windchill Dew Point Humidity Pressure Visibility Wind Dir Wind Speed Gust Speed Precip Events Conditions
12:15 AM 50.0 °F - 41.0 °F 71% 29.56 in 10.0 mi West 13.8 mph 21.9 mph N/A   Clear
12:35 AM 50.0 °F - 41.0 °F 71% 29.56 in 10.0 mi West 15.0 mph 24.2 mph N/A   Clear
12:55 AM 48.2 °F - 41.0 °F 76% 29.56 in 10.0 mi West 15.0 mph - N/A   Clear
1:15 AM 46.4 °F 40.4 °F 39.2 °F 76% 29.57 in 10.0 mi West 13.8 mph - N/A   Clear
1:35 AM 46.4 °F 41.1 °F 39.2 °F 76% 29.58 in 10.0 mi West 11.5 mph 18.4 mph N/A   Clear
1:55 AM 46.4 °F 41.5 °F 37.4 °F 71% 29.60 in 10.0 mi West 10.4 mph - N/A   Clear
2:15 AM 46.4 °F 41.5 °F 37.4 °F 71% 29.61 in 10.0 mi West 10.4 mph - N/A   Clear
2:35 AM 44.6 °F 39.7 °F 37.4 °F 76% 29.62 in 10.0 mi West 9.2 mph - N/A   Clear
2:55 AM 44.6 °F 39.7 °F 37.4 °F 76% 29.63 in 10.0 mi WSW 9.2 mph - N/A   Clear
3:15 AM 42.8 °F 37.5 °F 37.4 °F 81% 29.64 in 10.0 mi WSW 9.2 mph - N/A   Clear
3:35 AM 42.8 °F 38.0 °F 37.4 °F 81% 29.65 in 10.0 mi West 8.1 mph - N/A   Clear
3:55 AM 42.8 °F 37.0 °F 35.6 °F 76% 29.65 in 10.0 mi West 10.4 mph - N/A   Clear
4:15 AM 42.8 °F 37.0 °F 35.6 °F 76% 29.66 in 10.0 mi West 10.4 mph - N/A   Clear
4:35 AM 42.8 °F 38.0 °F 35.6 °F 76% 29.67 in 10.0 mi West 8.1 mph - N/A   Clear
4:55 AM 42.8 °F 37.5 °F 35.6 °F 76% 29.68 in 10.0 mi West 9.2 mph - N/A   Clear
5:15 AM 41.0 °F 35.2 °F 35.6 °F 81% 29.69 in 10.0 mi West 9.2 mph - N/A   Scattered Clouds
5:35 AM 42.8 °F 37.0 °F 35.6 °F 76% 29.70 in 10.0 mi West 10.4 mph - N/A   Overcast
5:55 AM 42.8 °F 37.5 °F 35.6 °F 76% 29.71 in 10.0 mi West 9.2 mph - N/A   Overcast
6:15 AM 42.8 °F 37.5 °F 35.6 °F 76% 29.72 in 10.0 mi West 9.2 mph - N/A   Overcast
6:35 AM 42.8 °F 38.0 °F 35.6 °F 76% 29.73 in 10.0 mi WSW 8.1 mph - N/A   Overcast
6:55 AM 42.8 °F 37.0 °F 35.6 °F 76% 29.75 in 10.0 mi West 10.4 mph - N/A   Mostly Cloudy
7:15 AM 41.0 °F 35.8 °F 35.6 °F 81% 29.75 in 10.0 mi West 8.1 mph - N/A   Scattered Clouds
7:35 AM 41.0 °F 35.2 °F 35.6 °F 81% 29.77 in 10.0 mi West 9.2 mph - N/A   Clear
7:55 AM 41.0 °F 35.2 °F 35.6 °F 81% 29.77 in 10.0 mi West 9.2 mph - N/A   Clear
8:15 AM 42.8 °F 37.5 °F 35.6 °F 76% 29.79 in 10.0 mi West 9.2 mph - N/A   Clear
8:35 AM 42.8 °F 37.5 °F 35.6 °F 76% 29.79 in 10.0 mi WSW 9.2 mph - N/A   Clear
8:55 AM 44.6 °F 39.2 °F 35.6 °F 71% 29.81 in 10.0 mi WSW 10.4 mph - N/A   Clear
9:15 AM 44.6 °F 38.4 °F 35.6 °F 71% 29.81 in 10.0 mi WSW 12.7 mph 18.4 mph N/A   Clear
9:35 AM 46.4 °F 41.1 °F 35.6 °F 66% 29.82 in 10.0 mi WSW 11.5 mph 20.7 mph N/A   Clear
9:55 AM 46.4 °F 41.1 °F 35.6 °F 66% 29.83 in 10.0 mi WSW 11.5 mph - N/A   Clear
10:15 AM 50.0 °F - 35.6 °F 58% 29.82 in 10.0 mi West 12.7 mph 18.4 mph N/A   Clear
10:35 AM 50.0 °F - 35.6 °F 58% 29.82 in 10.0 mi WSW 16.1 mph 19.6 mph N/A   Clear
10:55 AM 50.0 °F - 35.6 °F 58% 29.82 in 10.0 mi West 16.1 mph 20.7 mph N/A   Clear
11:15 AM 51.8 °F - 33.8 °F 50% 29.82 in 10.0 mi West 17.3 mph 25.3 mph N/A   Clear
11:35 AM 51.8 °F - 33.8 °F 50% 29.82 in 10.0 mi West 15.0 mph 23.0 mph N/A   Scattered Clouds
11:55 AM 50.0 °F - 32.0 °F 50% 29.81 in 10.0 mi West 18.4 mph 27.6 mph N/A   Scattered Clouds
12:15 PM 51.8 °F - 32.0 °F 47% 29.81 in 10.0 mi WNW 13.8 mph 26.5 mph N/A   Clear
12:35 PM 51.8 °F - 32.0 °F 47% 29.81 in 10.0 mi West 13.8 mph 26.5 mph N/A   Clear
12:55 PM 51.8 °F - 32.0 °F 47% 29.81 in 10.0 mi West 19.6 mph 24.2 mph N/A   Clear
1:15 PM 51.8 °F - 32.0 °F 47% 29.81 in 10.0 mi West 12.7 mph 26.5 mph N/A   Scattered Clouds
1:35 PM 51.8 °F - 32.0 °F 47% 29.81 in 10.0 mi WSW 21.9 mph 27.6 mph N/A   Clear
1:55 PM 51.8 °F - 32.0 °F 47% 29.81 in 10.0 mi West 18.4 mph 26.5 mph N/A   Clear
2:15 PM 51.8 °F - 32.0 °F 47% 29.81 in 10.0 mi West 15.0 mph 21.9 mph N/A   Clear
2:35 PM 51.8 °F - 32.0 °F 47% 29.82 in 10.0 mi WSW 18.4 mph 25.3 mph N/A   Clear
2:55 PM 51.8 °F - 32.0 °F 47% 29.83 in 10.0 mi West 19.6 mph 26.5 mph N/A   Clear
3:15 PM 51.8 °F - 30.2 °F 44% 29.84 in 10.0 mi West 20.7 mph 26.5 mph N/A   Clear
3:35 PM 51.8 °F - 30.2 °F 44% 29.85 in 10.0 mi West 17.3 mph 23.0 mph N/A   Clear
3:55 PM 50.0 °F - 30.2 °F 47% 29.86 in 10.0 mi West 13.8 mph 23.0 mph N/A   Clear
4:35 PM 50.0 °F - 30.2 °F 47% 29.88 in 10.0 mi West 15.0 mph 25.3 mph N/A   Clear
4:55 PM 46.4 °F 41.9 °F 30.2 °F 53% 29.90 in 10.0 mi West 9.2 mph - N/A   Clear
5:15 PM 46.4 °F 43.5 °F 32.0 °F 57% 29.91 in 10.0 mi WSW 5.8 mph - N/A   Clear
5:35 PM 46.4 °F 41.5 °F 30.2 °F 53% 29.93 in 10.0 mi West 10.4 mph - N/A   Clear
5:55 PM 44.6 °F 40.7 °F 30.2 °F 57% 29.94 in 10.0 mi West 6.9 mph - N/A   Clear
6:15 PM 42.8 °F 39.3 °F 30.2 °F 61% 29.95 in 10.0 mi West 5.8 mph - N/A   Clear
6:35 PM 42.8 °F 39.3 °F 30.2 °F 61% 29.96 in 10.0 mi West 5.8 mph - N/A   Clear
6:55 PM 42.8 °F 38.6 °F 30.2 °F 61% 29.97 in 10.0 mi West 6.9 mph - N/A   Clear
7:15 PM 42.8 °F 39.3 °F 28.4 °F 57% 29.97 in 10.0 mi West 5.8 mph - N/A   Clear
7:35 PM 41.0 °F 38.0 °F 28.4 °F 61% 29.98 in 10.0 mi West 4.6 mph - N/A   Clear
7:55 PM 41.0 °F 39.0 °F 30.2 °F 65% 29.99 in 10.0 mi NNW 3.5 mph - N/A   Clear
8:35 PM 39.2 °F - 28.4 °F 65% 30.02 in 10.0 mi Calm Calm - N/A   Clear
8:55 PM 37.4 °F - 26.6 °F 65% 30.02 in 10.0 mi Calm Calm - N/A   Clear
9:15 PM 37.4 °F 34.9 °F 26.6 °F 65% 30.03 in 10.0 mi NNW 3.5 mph - N/A   Clear
9:35 PM 37.4 °F 34.9 °F 26.6 °F 65% 30.03 in 10.0 mi North 3.5 mph - N/A   Clear
9:55 PM 35.6 °F - 26.6 °F 70% 30.03 in 10.0 mi Calm Calm - N/A   Clear
10:15 PM 35.6 °F - 24.8 °F 65% 30.04 in 10.0 mi Calm Calm - N/A   Clear
10:35 PM 33.8 °F - 26.6 °F 75% 30.06 in 10.0 mi Calm Calm - N/A   Clear
10:55 PM 32.0 °F - 26.6 °F 80% 30.05 in 10.0 mi Calm Calm - N/A   Clear
11:15 PM 32.0 °F - 26.6 °F 80% 30.05 in 10.0 mi Calm Calm - N/A   Clear
11:35 PM 30.2 °F - 28.4 °F 93% 30.05 in 10.0 mi Calm Calm - N/A   Clear
11:55 PM 28.4 °F - 26.6 °F 93% 30.06 in 10.0 mi Calm Calm - N/A   Clear